{"data":{"norad_id":59797,"epoch":"2026-05-24T11:07:59.333952Z","epoch_age_seconds":124439,"freshness":"FRESH","line1":"1 59797U 24093R   26144.46388118  .00000408  00000+0  24354-4 0  9994","line2":"2 59797  43.0016 140.9992 0001139 266.1313  93.9409 15.27577789114281","mean_motion":15.27577789,"eccentricity":0.0001139,"inclination_deg":43.0016,"raan_deg":140.9992,"arg_perigee_deg":266.1313,"mean_anomaly_deg":93.9409,"bstar":2.4354e-5,"rev_number":11428,"period_min":94.266885154351,"perigee_km":482.27422672662,"apogee_km":483.83720642746,"semimajor_km":6861.192716577,"source":"CELESTRAK","updated_at":"2026-05-25T13:38:19.082937Z"}}